Tillbaka till svenska Fidonet
English   Information   Debug  
FILM   0/18
FNEWS_PUBLISH   4983
FN_SYSOP   42232
FN_SYSOP_OLD1   71952
FTP_FIDO   0/2
FTSC_PUBLIC   0/13976
FUNNY   0/4886
GENEALOGY.EUR   0/71
GET_INFO   105
GOLDED   0/408
HAM   6183/16712
HOLYSMOKE   0/6791
HOT_SITES   0/1
HTMLEDIT   0/71
HUB203   466
HUB_100   264
HUB_400   39
HUMOR   0/29
IC   0/2851
INTERNET   0/424
INTERUSER   0/3
IP_CONNECT   719
JAMNNTPD   0/233
JAMTLAND   0/47
KATTY_KORNER   0/41
LAN   0/16
LINUX-USER   0/19
LINUXHELP   0/1155
LINUX   0/22382
LINUX_BBS   0/957
mail   18.68
mail_fore_ok   249
MENSA   0/341
MODERATOR   0/102
MONTE   0/992
MOSCOW_OKLAHOMA   0/1245
MUFFIN   0/783
MUSIC   0/321
N203_STAT   938
N203_SYSCHAT   313
NET203   321
NET204   69
NET_DEV   0/10
NORD.ADMIN   0/101
NORD.CHAT   0/2572
NORD.FIDONET   189
NORD.HARDWARE   0/28
NORD.KULTUR   0/114
NORD.PROG   0/32
NORD.SOFTWARE   0/88
NORD.TEKNIK   0/58
NORD   0/453
OCCULT_CHAT   0/93
OS2BBS   0/787
OS2DOSBBS   0/580
OS2HW   0/42
OS2INET   0/37
OS2LAN   0/134
OS2PROG   0/36
OS2REXX   0/113
OS2USER-L   207
OS2   0/4831
OSDEBATE   0/18996
PASCAL   0/490
PERL   0/457
PHP   0/45
POINTS   0/405
POLITICS   0/29554
POL_INC   0/14731
PSION   103
R20_ADMIN   1133
R20_AMATORRADIO   0/2
R20_BEST_OF_FIDONET   16
R20_CHAT   0/897
R20_DEPP   0/3
R20_DEV   400
R20_ECHO2   1889
R20_ECHOPRES   0/35
R20_ESTAT   0/719
R20_FIDONETPROG...
...RAM.MYPOINT
  0/2
R20_FIDONETPROGRAM   0/22
R20_FIDONET   0/248
R20_FILEFIND   0/24
R20_FILEFOUND   0/22
R20_HIFI   0/3
R20_INFO2   3781
R20_INTERNET   0/12940
R20_INTRESSE   0/60
R20_INTR_KOM   0/99
R20_KANDIDAT.CHAT   42
R20_KANDIDAT   28
R20_KOM_DEV   112
R20_KONTROLL   0/13360
R20_KORSET   0/18
R20_LOKALTRAFIK   0/24
R20_MODERATOR   0/1852
R20_NC   76
R20_NET200   245
R20_NETWORK.OTH...
...ERNETS
  0/13
R20_OPERATIVSYS...
...TEM.LINUX
  0/44
R20_PROGRAMVAROR   0/1
R20_REC2NEC   534
R20_SFOSM   0/341
R20_SF   0/108
R20_SPRAK.ENGLISH   0/1
R20_SQUISH   107
R20_TEST   2
R20_WORST_OF_FIDONET   20
RAR   0/9
RA_MULTI   106
RA_UTIL   0/162
REGCON.EUR   0/2069
REGCON   0/13
SCIENCE   0/1206
SF   0/239
SHAREWARE_SUPPORT   0/5146
SHAREWRE   0/14
SIMPSONS   0/169
STATS_OLD1   0/2539.065
STATS_OLD2   0/2530
STATS_OLD3   0/2395.095
STATS_OLD4   0/1692.25
SURVIVOR   0/495
SYSOPS_CORNER   0/3
SYSOP   0/84
TAGLINES   0/112
TEAMOS2   0/4530
TECH   0/2617
TEST.444   0/105
TRAPDOOR   0/19
TREK   0/755
TUB   0/290
UFO   0/40
UNIX   0/1316
USA_EURLINK   0/102
USR_MODEMS   0/1
VATICAN   0/2740
VIETNAM_VETS   0/14
VIRUS   0/378
VIRUS_INFO   0/201
VISUAL_BASIC   0/473
WHITEHOUSE   0/5187
WIN2000   0/101
WIN32   0/30
WIN95   0/4291
WIN95_OLD1   0/70272
WINDOWS   0/1517
WWB_SYSOP   0/419
WWB_TECH   0/810
ZCC-PUBLIC   0/1
ZEC   4

 
4DOS   0/134
ABORTION   0/7
ALASKA_CHAT   0/506
ALLFIX_FILE   0/1313
ALLFIX_FILE_OLD1   0/7997
ALT_DOS   0/152
AMATEUR_RADIO   0/1039
AMIGASALE   0/14
AMIGA   0/331
AMIGA_INT   0/1
AMIGA_PROG   0/20
AMIGA_SYSOP   0/26
ANIME   0/15
ARGUS   0/924
ASCII_ART   0/340
ASIAN_LINK   0/651
ASTRONOMY   0/417
AUDIO   0/92
AUTOMOBILE_RACING   0/105
BABYLON5   0/17862
BAG   135
BATPOWER   0/361
BBBS.ENGLISH   0/382
BBSLAW   0/109
BBS_ADS   0/5290
BBS_INTERNET   0/507
BIBLE   0/3563
BINKD   0/1119
BINKLEY   0/215
BLUEWAVE   0/2173
CABLE_MODEMS   0/25
CBM   0/46
CDRECORD   0/66
CDROM   0/20
CLASSIC_COMPUTER   0/378
COMICS   0/15
CONSPRCY   0/899
COOKING   42003
COOKING_OLD1   0/24719
COOKING_OLD2   0/40862
COOKING_OLD3   0/37489
COOKING_OLD4   0/35496
COOKING_OLD5   9370
C_ECHO   0/189
C_PLUSPLUS   0/31
DIRTY_DOZEN   0/201
DOORGAMES   0/2333
DOS_INTERNET   0/196
duplikat   6102
ECHOLIST   0/18295
EC_SUPPORT   0/318
ELECTRONICS   0/359
ELEKTRONIK.GER   1534
ENET.LINGUISTIC   0/13
ENET.POLITICS   0/4
ENET.SOFT   0/11701
ENET.SYSOP   34332
ENET.TALKS   0/32
ENGLISH_TUTOR   0/2000
EVOLUTION   0/1335
FDECHO   0/217
FDN_ANNOUNCE   0/7068
FIDONEWS   25122
FIDONEWS_OLD1   0/49742
FIDONEWS_OLD2   0/35949
FIDONEWS_OLD3   0/30874
FIDONEWS_OLD4   0/37224
FIDO_SYSOP   12973
FIDO_UTIL   0/180
FILEFIND   0/209
FILEGATE   0/212
Möte HAM, 16712 texter
 lista första sista föregående nästa
Text 3337, 864 rader
Skriven 2009-11-24 23:30:23 av Amsat List (1:323/120.0)
Ärende: [keps]  orb09328.amsa
=============================
[keps]  orb09328.amsa

Return-Path: <keps-bounces@amsat.org>
X-Rcpt: craig.healy@chowda.com
X-UIDL: 1259122612.5297

SB KEPS @ AMSAT  $ORB09328.O
Orbital Elements  09328.OSCAR

HR AMSAT ORBITAL ELEMENTS FOR OSCAR SATELLITES
FROM WA5QGD FORT WORTH,TX November 24, 2009
Send Subscribe/unsubscribe to KEPS at http://www.amsat.org/mailman/listinfo/kep
BID: ORB09328.O
TO ALL RADIO AMATEURS BT

Satellite: AO-07
Catalog number: 07530
Epoch time:      09327.62165578
Element set:    0638
Inclination:      101.4154 deg
RA of node:       346.3792 deg
Eccentricity:    0.0011976
Arg of perigee:   317.4829 deg
Mean anomaly:     042.5315 deg
Mean motion:   12.53577134 rev/day
Decay rate:       -2.7e-07 rev/day^2
Epoch rev:           60269
Checksum:              310

Satellite: FO-29
Catalog number: 24278
Epoch time:      09327.59097891
Element set:    0196
Inclination:      098.5221 deg
RA of node:       180.0030 deg
Eccentricity:    0.0350080
Arg of perigee:   297.2677 deg
Mean anomaly:     059.3206 deg
Mean motion:   13.52946364 rev/day
Decay rate:       -4.5e-07 rev/day^2
Epoch rev:           65530
Checksum:              322

Satellite: SO-33
Catalog number: 25509
Epoch time:      09327.83768203
Element set:     592
Inclination:      031.4351 deg
RA of node:       229.7369 deg
Eccentricity:    0.0354844
Arg of perigee:   294.3279 deg
Mean anomaly:     062.0681 deg
Mean motion:   14.28270330 rev/day
Decay rate:       -3.5e-07 rev/day^2
Epoch rev:           57867
Checksum:              326

Satellite: RS-22
Catalog number: 27939
Epoch time:      09327.65564027
Element set:     945
Inclination:      097.9167 deg
RA of node:       196.4944 deg
Eccentricity:    0.0013703
Arg of perigee:   353.7760 deg
Mean anomaly:     006.3275 deg
Mean motion:   14.63359585 rev/day
Decay rate:       1.39e-06 rev/day^2
Epoch rev:           32889
Checksum:              354

Satellite: VO-52
Catalog number: 28650
Epoch time:      09327.90515546
Element set:     370
Inclination:      097.7239 deg
RA of node:       024.0294 deg
Eccentricity:    0.0026133
Arg of perigee:   226.6331 deg
Mean anomaly:     133.3147 deg
Mean motion:   14.81643334 rev/day
Decay rate:      -6.30e-06 rev/day^2
Epoch rev:           24629
Checksum:              292

Satellite: SO-67
Catalog number: 35870
Epoch time:      09328.82567255
Element set:     202
Inclination:      097.3627 deg
RA of node:       017.5904 deg
Eccentricity:    0.0013068
Arg of perigee:   059.1515 deg
Mean anomaly:     062.5965 deg
Mean motion:   15.22864574 rev/day
Decay rate:       6.02e-06 rev/day^2
Epoch rev:            1036
Checksum:              311

/EX
SB KEPS @ AMSAT  $ORB09328.D
Orbital Elements  09328.MICROS

HR AMSAT ORBITAL ELEMENTS FOR THE MICROSATS
FROM WA5QGD FORT WORTH,TX November 24, 2009
Send Subscribe/unsubscribe to KEPS at http://www.amsat.org/mailman/listinfo/kep
BID: ORB09328.D
TO ALL RADIO AMATEURS BT

Satellite: UO-11
Catalog number: 14781
Epoch time:      09327.73185765
Element set:     112
Inclination:      098.0860 deg
RA of node:       013.5149 deg
Eccentricity:    0.0008907
Arg of perigee:   176.2963 deg
Mean anomaly:     183.8288 deg
Mean motion:   14.79748918 rev/day
Decay rate:        4.5e-07 rev/day^2
Epoch rev:           38142
Checksum:              336

Satellite: AO-16
Catalog number: 20439
Epoch time:      09327.46253054
Element set:    0758
Inclination:      098.3033 deg
RA of node:       288.8049 deg
Eccentricity:    0.0011838
Arg of perigee:   059.8414 deg
Mean anomaly:     300.3944 deg
Mean motion:   14.31839780 rev/day
Decay rate:       -1.0e-07 rev/day^2
Epoch rev:           03594
Checksum:              313

Satellite: LO-19
Catalog number: 20442
Epoch time:      09327.63325260
Element set:    0670
Inclination:      098.2660 deg
RA of node:       295.6060 deg
Eccentricity:    0.0012696
Arg of perigee:   055.6709 deg
Mean anomaly:     304.5685 deg
Mean motion:   14.32074135 rev/day
Decay rate:        7.0e-07 rev/day^2
Epoch rev:           03613
Checksum:              290

Satellite: AO-27
Catalog number: 22825
Epoch time:      09327.61872965
Element set:    0392
Inclination:      098.4599 deg
RA of node:       276.1849 deg
Eccentricity:    0.0008926
Arg of perigee:   149.6993 deg
Mean anomaly:     210.4693 deg
Mean motion:   14.29278816 rev/day
Decay rate:       -3.5e-07 rev/day^2
Epoch rev:           84268
Checksum:              375

Satellite: IO-26
Catalog number: 22826
Epoch time:      09327.65078507
Element set:    0129
Inclination:      098.4525 deg
RA of node:       276.8980 deg
Eccentricity:    0.0009319
Arg of perigee:   145.2685 deg
Mean anomaly:     214.9105 deg
Mean motion:   14.29532258 rev/day
Decay rate:       -1.2e-07 rev/day^2
Epoch rev:           84279
Checksum:              333

Satellite: GO-32
Catalog number: 25397
Epoch time:      09327.73795430
Element set:    0048
Inclination:      098.3178 deg
RA of node:       341.4710 deg
Eccentricity:    0.0001870
Arg of perigee:   121.0244 deg
Mean anomaly:     239.1119 deg
Mean motion:   14.23166289 rev/day
Decay rate:      -1.25e-06 rev/day^2
Epoch rev:           59082
Checksum:              299

Satellite: NO-44
Catalog number: 26931
Epoch time:      09327.58823580
Element set:     320
Inclination:      067.0521 deg
RA of node:       013.6779 deg
Eccentricity:    0.0007061
Arg of perigee:   270.2773 deg
Mean anomaly:     089.7525 deg
Mean motion:   14.29572983 rev/day
Decay rate:      -1.53e-06 rev/day^2
Epoch rev:           42536
Checksum:              316

